Weather Roundup
Issued by NWS Springfield, MO

Home | Current Version | Previous Version | Text Only | Print | Product List | Glossary On
Versions: 1 2 3 4 5 6 7 8 9 10 11 12 13 14 15 16 17 18 19 20 21 22 23 24 25 26 27 28 29 30 31 32 33 34 35 36 37 38 39 40 41 42 43 44 45 46 47 48 49 50
000
NZUS99 KSGF 291507
HRRSGF

HOURLY WEATHER
NATIONAL WEATHER SERVICE SPRINGFIELD MO
1000 AM CDT SUN MAR 29 2015

......SGF CWA......

CITY           SKY/WX    TMP DP  RH WIND       PRES   REMARKS
SPRINGFIELD    MOSUNNY   44  31  60 SE15G25   30.03R
JOPLIN         MOSUNNY   54  37  52 W9        30.05R
WEST PLAINS    SUNNY     41  28  60 SE10      30.15S
ROLLA          MOSUNNY   44  28  53 S22G32    30.05F
OSAGE BEACH    PTSUNNY   46  28  49 S18G25    30.06F
BRANSON        SUNNY     46  32  57 SE15G22   30.05S

......SURROUNDING SGF CWA......

CITY           SKY/WX    TMP DP  RH WIND       PRES   REMARKS
CHANUTE        PTSUNNY   47  39  74 SW6       30.03F
PARSONS        PTSUNNY   49  39  68 N9        30.09R
COFFEYVILLE    MOSUNNY   52  38  58 SW12G17   30.02R
EMPORIA        PTSUNNY   51  42  71 SW8       29.99R
GROVE OK       SUNNY     57  39  51 S12       29.98S
ROGERS AR      SUNNY     54  38  54 S10G25    30.00F
SILOAM SPRINGS SUNNY     54  36  50 S14G24    30.01S
HARRISON AR    SUNNY     52  35  52 SE16      30.05S
NEAR YELLVILLE SUNNY     48  30  49 E7        30.10S

......KANSAS AND MISSOURI......

CITY           SKY/WX    TMP DP  RH WIND       PRES   REMARKS
KANSAS CTY INT CLOUDY    46  38  73 SW15      29.96F
DOWNTOWN KC    CLOUDY    47  36  65 SW13G21   29.97F
COLUMBIA       PTSUNNY   43  29  57 S17G30    30.08R
SEDALIA        CLOUDY    45  32  60 S7        30.06R
ST JOSEPH      CLOUDY    47  38  71 SW15      29.98R
ST LOUIS       MOSUNNY   45  19  35 S21G30    30.11F
SPIRIT OF STL  MOSUNNY   46  23  40 SW8G24    30.11F
KIRKSVILLE     CLOUDY    40  34  79 S17G29    29.96S WCI  31
WICHITA        PTSUNNY   54  44  69 SW8       29.98R
TOPEKA         PTSUNNY   51  41  68 S8        29.98R
OLATHE         CLOUDY    44  36  73 S14G25    29.98F

......TENNESSEE......

CITY           SKY/WX    TMP DP  RH WIND       PRES   REMARKS
MEMPHIS        CLOUDY    47  26  44 S12       30.25S
NASHVILLE      MOSUNNY   45  15  30 S17       30.34F

......ARKANSAS.......

CITY           SKY/WX    TMP DP  RH WIND       PRES   REMARKS
FAYETTEVILLE   SUNNY     53  40  61 S16       30.01F
FT SMITH       SUNNY     47  35  63 E15       30.08F
LITTLE ROCK    CLOUDY    48  36  63 SE10      30.19S

......OKLAHOMA.......

CITY           SKY/WX    TMP DP  RH WIND       PRES   REMARKS
TULSA          MOSUNNY   51  39  63 S17       29.98R
PONCA CITY     PTSUNNY   53  43  68 VRB3      30.01R
MCALESTER      MOSUNNY   56  41  57 S12G25    30.02F
OKLAHOMA CITY  MOSUNNY   58  45  62 S21       29.94S

......IOWA............

CITY           SKY/WX    TMP DP  RH WIND       PRES   REMARKS
DES MOINES     CLOUDY    45  38  76 SW15G25   29.87F
QUAD CITIES    CLOUDY    35  27  72 S22G32    29.89F WCI  23

......ILLINOIS........

CITY           SKY/WX    TMP DP  RH WIND       PRES   REMARKS
QUINCY         CLOUDY    37  27  67 S18G28    30.00F WCI  27
CHICAGO        CLOUDY    36  17  46 S20G33    30.04F WCI  25




USA.gov is the U.S. government's official web portal to all federal, state and local government web resources and services.